Wendover, UT

11:33 PM MST on December 03, 2016 (GMT -0700)
Wendover

Weather History for KENV - July, 2014

Change the Weather History Date:

Thursday, July 3, 2014

  Actual Average Record
Temperature  
Mean Temperature 82 °F -  
Max Temperature 96 °F 88 °F 104 °F (1985)
Min Temperature 69 °F 64 °F 51 °F (1938)
Cooling Degree Days 18    
Growing Degree Days 32 (Base 50)    
Moisture  
Dew Point 37 °F    
Average Humidity 20    
Maximum Humidity 31    
Minimum Humidity 10    
Precipitation  
Precipitation 0.00 in - - ()
Sea Level Pressure  
Sea Level Pressure 29.98 in    
Wind  
Wind Speed 8 mph (East)    
Max Wind Speed 24 mph    
Max Gust Speed 46 mph    
Visibility 10 miles    
Events      
Averages and records for this station are not official NWS values.
T = Trace of Precipitation, MM = Missing Value Source: NWS Daily Summary

Daily Weather History Graph

Daily Weather History Graph

Search for Another Location

Airport or City:

Trip Planner

Search our weather history database for the weather conditions in past years. The results will help you decide how hot, cold, wet, or windy it might be!

Date:

Astronomy

Jul. 03, 2014 Rise Set
Actual Time 6:09 AM MDT 9:10 PM MDT
Civil Twilight 5:36 AM MDT 9:43 PM MDT
Nautical Twilight 4:54 AM MDT 10:25 PM MDT
Astronomical Twilight 4:05 AM MDT 11:15 PM MDT
Moon 12:14 PM MDT (7/3) 12:03 AM MDT (7/3)
Length of Visible Light 16h 07m
Length of Day
15h 01m
Waxing Crescent, 33% of the Moon is Illuminated
Jul 3
Waxing Crescent
Jul 5
First Quarter
Jul 12
Full
Jul 18
Last Quarter
Jul 26
New

Hourly Weather History & Observations

Time (MDT) Temp. Dew Point Humidity Pressure Visibility Wind Dir Wind Speed Gust Speed Precip Events Conditions
12:15 AM 78.8 °F 35.6 °F 21% 29.96 in 10.0 mi East 3.5 mph - N/A   Clear
12:35 AM 77.0 °F 35.6 °F 22% 29.97 in 10.0 mi NE 3.5 mph - N/A   Clear
12:55 AM 77.0 °F 33.8 °F 21% 29.96 in 10.0 mi ENE 4.6 mph - N/A   Clear
1:15 AM 77.0 °F 35.6 °F 22% 29.95 in 10.0 mi NE 6.9 mph - N/A   Clear
1:35 AM 77.0 °F 33.8 °F 21% 29.95 in 10.0 mi East 4.6 mph - N/A   Clear
1:55 AM 77.0 °F 35.6 °F 22% 29.95 in 10.0 mi NNE 5.8 mph - N/A   Clear
2:15 AM 78.8 °F 35.6 °F 21% 29.96 in 9.0 mi NE 8.1 mph - N/A   Clear
2:35 AM 78.8 °F 35.6 °F 21% 29.96 in 10.0 mi NE 11.5 mph - N/A   Clear
2:55 AM 77.0 °F 37.4 °F 24% 29.96 in 10.0 mi NE 8.1 mph - N/A   Clear
3:15 AM 78.8 °F 37.4 °F 23% 29.95 in 10.0 mi ENE 5.8 mph - N/A   Clear
3:35 AM 77.0 °F 37.4 °F 24% 29.96 in 10.0 mi NE 9.2 mph - N/A   Clear
3:55 AM 75.2 °F 39.2 °F 27% 29.96 in 10.0 mi NNE 4.6 mph - N/A   Clear
4:15 AM 73.4 °F 39.2 °F 29% 29.96 in 10.0 mi ENE 6.9 mph - N/A   Clear
4:35 AM 73.4 °F 39.2 °F 29% 29.96 in 10.0 mi NE 9.2 mph - N/A   Clear
4:55 AM 73.4 °F 39.2 °F 29% 29.96 in 10.0 mi NE 11.5 mph - N/A   Clear
5:15 AM 73.4 °F 39.2 °F 29% 29.97 in 10.0 mi ENE 8.1 mph - N/A   Clear
5:35 AM 73.4 °F 39.2 °F 29% 29.97 in 10.0 mi NNE 5.8 mph - N/A   Clear
5:55 AM 73.4 °F 37.4 °F 27% 29.98 in 10.0 mi Calm Calm - N/A   Clear
6:15 AM 71.6 °F 39.2 °F 31% 29.98 in 10.0 mi NE 6.9 mph - N/A   Clear
6:35 AM 69.8 °F 37.4 °F 31% 29.98 in 6.0 mi ENE 5.8 mph - N/A   Clear
6:55 AM 71.6 °F 37.4 °F 29% 29.99 in 10.0 mi Calm Calm - N/A   Clear
7:15 AM 69.8 °F 37.4 °F 31% 30.00 in 10.0 mi Calm Calm - N/A   Clear
7:55 AM 75.2 °F 39.2 °F 27% 30.00 in 10.0 mi ENE 5.8 mph - N/A   Clear
8:15 AM 78.8 °F 39.2 °F 24% 30.00 in 10.0 mi ENE 4.6 mph - N/A   Clear
8:35 AM 78.8 °F 37.4 °F 23% 30.01 in 10.0 mi East 4.6 mph - N/A   Clear
8:55 AM 80.6 °F 37.4 °F 21% 30.01 in 10.0 mi ESE 5.8 mph - N/A   Clear
9:15 AM 80.6 °F 39.2 °F 23% 30.02 in 10.0 mi East 3.5 mph - N/A   Clear
9:35 AM 82.4 °F 39.2 °F 21% 30.02 in 10.0 mi ENE 6.9 mph - N/A   Clear
9:55 AM 82.4 °F 39.2 °F 21% 30.02 in 10.0 mi NE 6.9 mph - N/A   Clear
10:15 AM 84.2 °F 39.2 °F 20% 30.02 in 10.0 mi NE 8.1 mph - N/A   Clear
10:35 AM 84.2 °F 39.2 °F 20% 30.01 in 10.0 mi ENE 9.2 mph - N/A   Clear
10:55 AM 87.8 °F 41.0 °F 19% 30.01 in 10.0 mi ENE 8.1 mph - N/A   Clear
11:15 AM 87.8 °F 39.2 °F 18% 30.01 in 10.0 mi ENE 6.9 mph - N/A   Clear
11:35 AM 89.6 °F 39.2 °F 17% 30.01 in 10.0 mi ENE 5.8 mph - N/A   Clear
11:55 AM 91.4 °F 39.2 °F 16% 30.01 in 10.0 mi Calm Calm - N/A   Clear
12:15 PM 93.2 °F 39.2 °F 15% 30.00 in 10.0 mi East 6.9 mph - N/A   Clear
12:35 PM 93.2 °F 39.2 °F 15% 29.99 in 10.0 mi East 12.7 mph - N/A   Clear
12:55 PM 93.2 °F 39.2 °F 15% 29.99 in 10.0 mi East 13.8 mph - N/A   Clear
1:15 PM 93.2 °F 37.4 °F 14% 29.99 in 10.0 mi ESE 17.3 mph - N/A   Clear
1:35 PM 93.2 °F 33.8 °F 12% 29.97 in 10.0 mi South 9.2 mph 27.6 mph N/A   Clear
1:55 PM 91.4 °F 35.6 °F 14% 29.99 in 10.0 mi SSW 16.1 mph 46.0 mph N/A   Partly Cloudy
2:15 PM 93.2 °F 32.0 °F 11% 29.97 in 10.0 mi South 19.6 mph - N/A   Partly Cloudy
2:35 PM 93.2 °F 30.2 °F 11% 29.96 in 10.0 mi SE 13.8 mph 19.6 mph N/A   Clear
2:55 PM 96.8 °F 32.0 °F 10% 29.95 in 10.0 mi SE 15.0 mph 18.4 mph N/A   Clear
3:15 PM 93.2 °F 33.8 °F 12% 29.97 in 10.0 mi SE 15.0 mph - N/A   Clear
3:35 PM 93.2 °F 33.8 °F 12% 29.96 in 10.0 mi SW 9.2 mph - N/A   Scattered Clouds
3:55 PM 96.8 °F 33.8 °F 11% 29.94 in 10.0 mi ESE 17.3 mph - N/A   Partly Cloudy
4:15 PM 96.8 °F 35.6 °F 12% 29.94 in 10.0 mi ESE 17.3 mph 23.0 mph N/A   Clear
4:35 PM 96.8 °F 35.6 °F 12% 29.93 in 10.0 mi ESE 20.7 mph - N/A   Clear
4:55 PM 93.2 °F 35.6 °F 13% 29.95 in 10.0 mi SE 12.7 mph - N/A   Partly Cloudy
5:15 PM 89.6 °F 39.2 °F 17% 29.99 in 10.0 mi West 24.2 mph 36.8 mph N/A   Scattered Clouds
5:35 PM 91.4 °F 33.8 °F 13% 29.97 in 10.0 mi North 8.1 mph 32.2 mph N/A   Scattered Clouds
5:55 PM 91.4 °F 33.8 °F 13% 29.96 in 10.0 mi NE 8.1 mph - N/A   Clear
6:15 PM 91.4 °F 33.8 °F 13% 29.96 in 10.0 mi ENE 9.2 mph - N/A   Partly Cloudy
6:35 PM 91.4 °F 33.8 °F 13% 29.97 in 10.0 mi North 20.7 mph 33.4 mph N/A   Partly Cloudy
6:55 PM 89.6 °F 32.0 °F 13% 29.97 in 10.0 mi WSW 8.1 mph 33.4 mph N/A   Partly Cloudy
7:15 PM 91.4 °F 32.0 °F 12% 29.96 in 10.0 mi ESE 16.1 mph 21.9 mph N/A   Partly Cloudy
7:35 PM 89.6 °F 33.8 °F 14% 29.97 in 10.0 mi SSE 11.5 mph - N/A   Clear
7:55 PM 89.6 °F 33.8 °F 14% 29.97 in 10.0 mi SSW 15.0 mph 35.7 mph N/A   Clear
8:15 PM 89.6 °F 32.0 °F 13% 29.96 in 10.0 mi South 11.5 mph - N/A   Clear
8:35 PM 87.8 °F 32.0 °F 14% 29.96 in 10.0 mi SSE 18.4 mph 25.3 mph N/A   Clear
8:55 PM 84.2 °F 35.6 °F 18% 29.97 in 10.0 mi SSE 17.3 mph - N/A   Clear
9:15 PM 84.2 °F 35.6 °F 18% 29.97 in 10.0 mi SE 12.7 mph - N/A   Clear
9:35 PM 82.4 °F 39.2 °F 21% 29.98 in 10.0 mi SE 9.2 mph - N/A   Clear
9:55 PM 80.6 °F 42.8 °F 26% 29.98 in 10.0 mi East 6.9 mph - N/A   Clear
10:15 PM 78.8 °F 42.8 °F 28% 29.98 in 10.0 mi NE 5.8 mph - N/A   Clear
10:35 PM 78.8 °F 42.8 °F 28% 29.99 in 10.0 mi NE 6.9 mph - N/A   Clear
10:55 PM 80.6 °F 39.2 °F 23% 29.99 in 10.0 mi West 5.8 mph - N/A   Clear
11:15 PM 80.6 °F 39.2 °F 23% 30.00 in 10.0 mi SE 3.5 mph - N/A   Clear
11:35 PM 77.0 °F 41.0 °F 28% 30.00 in 7.0 mi SSE 4.6 mph - N/A   Clear
11:55 PM 73.4 °F 37.4 °F 27% 30.01 in 10.0 mi West 3.5 mph - N/A   Clear